[TLELIST] Archives

 

[list_settings.list_name] Current TLEs

January 12th 2022 PST

HST 1 20580U 90037B 22011.68043655 .00000971 00000-0 47404-4 0 9997 2 20580 28.4698 127.0458 0002753 141.3554 322.9609 15.09933371542497 ISS (ZARYA) 1 25544U 98067A 22012.07424244 .00002779 00000-0 56858-4 0 9995 2 25544 51.6438 29.6698 0005491 29.7536 7.2479 15.49900768320979 CXO 1 25867U 99040B 22012.02442935 .00000205 00000-0 00000-0 0 9993 2 25867 49.7184 245.3233 8630671 229.0765 0.1780 0.37804441 11208 ____________________________________________________________________ These 2-Line ...Continue Reading

[list_settings.list_name] Current TLEs

January 11th 2022 PST

HST 1 20580U 90037B 22010.54856767 .00000893 00000-0 42745-4 0 9993 2 20580 28.4696 134.5382 0002786 129.9204 289.6315 15.09931360542325 ISS (ZARYA) 1 25544U 98067A 22011.38228885 .00002492 00000-0 51839-4 0 9997 2 25544 51.6437 33.0978 0005469 27.4224 106.1781 15.49895175320860 CXO 1 25867U 99040B 22012.02442935 .00000205 00000-0 00000-0 0 9993 2 25867 49.7184 245.3233 8630671 229.0765 0.1780 0.37804441 11208 ____________________________________________________________________ These 2-Line ...Continue Reading

[list_settings.list_name] Current TLEs

January 10th 2022 PST

HST 1 20580U 90037B 22009.76590814 .00000884 00000-0 42221-4 0 9992 2 20580 28.4694 139.7192 0002804 121.9869 354.7875 15.09930380542202 ISS (ZARYA) 1 25544U 98067A 22010.35953704 .00001773 00000-0 39202-4 0 9999 2 25544 51.6436 38.1636 0005429 23.4143 159.8529 15.49886532320703 CXO 1 25867U 99040B 22012.02442935 .00000205 00000-0 00000-0 0 9993 2 25867 49.7184 245.3233 8630671 229.0765 0.1780 0.37804441 11208 ____________________________________________________________________ These 2-Line ...Continue Reading

[list_settings.list_name] Current TLEs

January 9th 2022 PST

HST 1 20580U 90037B 22008.84358875 .00000819 00000-0 38262-4 0 9997 2 20580 28.4692 145.8247 0002827 112.6733 20.6656 15.09928934542063 ISS (ZARYA) 1 25544U 98067A 22009.39709491 .00001398 00000-0 32625-4 0 9998 2 25544 51.6438 42.9320 0005343 19.9473 189.7400 15.49880456320551 CXO 1 25867U 99040B 22009.38118769 .00000203 00000-0 00000+0 0 9990 2 25867 49.7840 245.4609 8624780 229.0160 0.3691 0.37804421 22357 ____________________________________________________________________ These 2-Line ...Continue Reading

[list_settings.list_name] Current TLEs

January 8th 2022 PST

HST 1 20580U 90037B 22007.85167174 .00000667 00000-0 29146-4 0 9999 2 20580 28.4690 152.3910 0002838 102.7967 28.0458 15.09926936541917 ISS (ZARYA) 1 25544U 98067A 22008.15283648 .00002181 00000-0 46402-4 0 9991 2 25544 51.6430 49.0958 0005532 16.0460 86.6427 15.49878147320369 CXO 1 25867U 99040B 22009.38118769 .00000203 00000-0 00000+0 0 9990 2 25867 49.7840 245.4609 8624780 229.0160 0.3691 0.37804421 22357 ____________________________________________________________________ These 2-Line ...Continue Reading

[list_settings.list_name] Current TLEs

January 7th 2022 PST

HST 1 20580U 90037B 22007.13048981 .00000682 00000-0 30053-4 0 9990 2 20580 28.4689 157.1651 0002840 95.5195 67.3935 15.09926122542076 ISS (ZARYA) 1 25544U 98067A 22007.37805750 .00002840 00000-0 57975-4 0 9997 2 25544 51.6442 52.9322 0005418 12.0100 84.9106 15.49876842320242 CXO 1 25867U 99040B 22009.38118769 .00000203 00000-0 00000+0 0 9990 2 25867 49.7840 245.4609 8624780 229.0160 0.3691 0.37804421 22357 ____________________________________________________________________ These 2-Line ...Continue Reading

[list_settings.list_name] Current TLEs

January 6th 2022 PST

HST 1 20580U 90037B 22005.86746706 .00000771 00000-0 35399-4 0 9995 2 20580 28.4688 165.5262 0002841 83.1030 40.7414 15.09924971541614 ISS (ZARYA) 1 25544U 98067A 22006.34724497 -.00006558 00000-0 -10747-3 0 9998 2 25544 51.6440 58.0391 0005560 5.7091 95.9406 15.49859753320088 CXO 1 25867U 99040B 22006.73884967 .00000297 00000-0 00000+0 0 9999 2 25867 49.8228 245.5655 8618846 228.9895 0.6336 0.37806445 22345 ____________________________________________________________________ These 2-Line ...Continue Reading

[list_settings.list_name] Current TLEs

January 5th 2022 PST

HST 1 20580U 90037B 22004.73548063 .00000836 00000-0 39316-4 0 9991 2 20580 28.4688 173.0199 0002834 71.5072 6.9636 15.09923646541445 ISS (ZARYA) 1 25544U 98067A 22005.38039602 .00004125 00000-0 80587-4 0 9994 2 25544 51.6440 62.8269 0005459 7.7327 95.8115 15.49867122319933 CXO 1 25867U 99040B 22006.73884967 .00000297 00000-0 00000+0 0 9999 2 25867 49.8228 245.5655 8618846 228.9895 0.6336 0.37806445 22345 ____________________________________________________________________ These 2-Line ...Continue Reading

[list_settings.list_name] Current TLEs

January 4th 2022 PST

HST 1 20580U 90037B 22003.88287410 .00000890 00000-0 42552-4 0 9998 2 20580 28.4687 178.6640 0002827 62.8959 51.8492 15.09922498541314 ISS (ZARYA) 1 25544U 98067A 22004.41454216 .00004617 00000-0 89252-4 0 9993 2 25544 51.6438 67.6122 0005443 4.7241 106.2763 15.49859893319781 CXO 1 25867U 99040B 22006.73884967 .00000297 00000-0 00000+0 0 9999 2 25867 49.8228 245.5655 8618846 228.9895 0.6336 0.37806445 22345 ____________________________________________________________________ These 2-Line ...Continue Reading

[list_settings.list_name] Current TLEs

January 3rd 2022 PST

HST 1 20580U 90037B 22002.89075314 .00000982 00000-0 48094-4 0 9995 2 20580 28.4687 185.2316 0002799 52.9532 58.2062 15.09921256541420 ISS (ZARYA) 1 25544U 98067A 22002.97322917 .00007036 00000-0 13182-3 0 9990 2 25544 51.6445 74.7512 0005660 356.3553 347.5709 15.49849232319555 CXO 1 25867U 99040B 22004.09090446 .00000365 00000-0 00000-0 0 9994 2 25867 49.8826 245.7025 8615177 228.9485 0.0885 0.37809872 11170 ____________________________________________________________________ These 2-Line ...Continue Reading
  • This mailing list is a public mailing list - anyone may join or leave, at any time.
  • This mailing list is announce-only.

International Space Station (ISS) / Hubble Space Telescope (HST) / Chandra X-Ray Observatory Orbital Data via EMAIL

Privacy Policy:

Private list